Date String (YYYY-MM-DD hh:mm:ss) UTC,Instrument flags,absolute air pressure of the measurement (hPa),sample flow rate (lpm),inlet stack bypass flow (lpm),air temperature of the measurement (°C),ambient temperature measured by the external sensor (°C),aerosol sample conditioner tube jacket temperature (°C),OPC LED temperature (°C),internal box temperature (°C),relative humidity of the measurement (%),span deviation,mass concentration of particles derived from Lorenz-Mie calculation of OPC scattering (μg/m³),mass concentration of particles derived from Lorenz-Mie calculation of OPC scattering (μg/m³),mass concentration of particles derived from Lorenz-Mie calculation of OPC scattering (μg/m³)
DateTimeUTC,F1_M11,P_M11,Q1_M11,Q2_M11,T1_M11,T2_M11,T3_M11,T4_M11,T5_M11,U1_M11,ZSPAN_M11,X2_M11,X0_M11,X1_M11
2023-11-14 10:00:00,SystemResetWarning,0830.6,5.00,000.00,026.9,025.8,000.0,035.3,028.2,5.3,0000.0,0004.87,0016.49,0004.01
2023-11-14 10:01:00,SystemResetWarning,0830.7,5.00,000.00,026.9,025.8,000.0,035.3,028.3,4.3,0000.0,0004.95,0016.79,0004.08
2023-11-14 10:02:00,SystemResetWarning,0830.6,5.00,000.00,026.9,025.8,000.0,035.3,028.3,4.3,0000.0,0005.01,0016.49,0004.10
2023-11-14 10:03:00,SystemResetWarning,0830.6,5.01,000.00,026.8,025.8,000.0,035.3,028.3,4.2,0000.0,0004.99,0015.84,0004.07
2023-11-14 10:04:00,SystemResetWarning,0830.7,5.01,000.00,026.8,025.8,000.0,035.3,028.2,4.3,0000.0,0004.84,0015.51,0003.96
2023-11-14 10:05:00,SystemResetWarning,0830.5,5.01,000.00,026.8,025.7,000.0,035.3,028.2,4.3,0000.0,0004.66,0014.34,0003.79
2023-11-14 10:06:00,SystemResetWarning,0830.5,4.98,000.00,026.8,025.7,000.0,035.2,028.2,4.2,0000.0,0004.32,0013.12,0003.57
2023-11-14 10:07:00,SystemResetWarning,0830.4,5.00,000.00,026.8,025.6,000.0,035.2,028.1,4.2,0000.0,0003.96,0011.97,0003.31
2023-11-14 10:08:00,SystemResetWarning,0830.4,5.01,000.00,026.8,025.6,000.0,035.2,028.2,4.3,0000.0,0003.62,0010.60,0003.04
2023-11-14 10:09:00,SystemResetWarning,0830.4,5.01,000.00,026.8,025.6,000.0,035.2,028.2,4.3,0000.0,0003.33,0009.14,0002.70
2023-11-14 10:10:00,SystemResetWarning,0830.4,5.00,000.00,026.7,025.6,000.0,035.2,028.1,4.3,0000.0,0003.10,0008.27,0002.40
2023-11-14 10:11:00,SystemResetWarning,0830.6,4.99,000.00,026.7,025.6,000.0,035.2,028.1,4.2,0000.0,0002.75,0006.95,0002.10
2023-11-14 10:12:00,SystemResetWarning,0830.4,4.99,000.00,026.7,025.5,000.0,035.2,028.1,4.4,0000.0,0002.48,0006.55,0001.86
2023-11-14 10:13:00,SystemResetWarning,0830.4,5.00,000.00,026.7,025.5,000.0,035.2,028.0,4.4,0000.0,0002.23,0006.06,0001.70
2023-11-14 10:14:00,SystemResetWarning,0830.5,5.00,000.00,026.7,025.5,000.0,035.2,028.0,4.4,0000.0,0001.99,0005.60,0001.56
2023-11-14 10:15:00,SystemResetWarning,0830.5,5.00,000.00,026.7,025.5,000.0,035.1,028.0,4.5,0000.0,0001.92,0005.39,0001.52
2023-11-14 10:16:00,SystemResetWarning,0830.7,5.00,000.00,026.7,025.4,000.0,035.1,028.0,4.5,0000.0,0001.90,0005.35,0001.48
2023-11-14 10:17:00,SystemResetWarning,0830.5,5.00,000.00,026.7,025.4,000.0,035.1,028.0,4.5,0000.0,0001.77,0005.17,0001.39
2023-11-14 10:18:00,SystemResetWarning,0830.4,5.00,000.00,026.7,025.5,000.0,035.1,027.9,4.3,0000.0,0001.63,0004.65,0001.31
2023-11-14 10:19:00,SystemResetWarning,0830.4,5.00,000.00,026.6,025.4,000.0,035.1,028.0,4.3,0000.0,0001.62,0005.84,0001.31
2023-11-14 10:20:00,SystemResetWarning,0830.4,5.00,000.00,026.6,025.4,000.0,035.1,028.0,4.3,0000.0,0001.60,0005.77,0001.32
2023-11-14 10:21:00,SystemResetWarning,0830.4,5.00,000.00,026.6,025.4,000.0,035.1,028.0,4.3,0000.0,0001.61,0005.83,0001.33
2023-11-14 10:22:00,SystemResetWarning,0830.3,5.00,000.00,026.6,025.4,000.0,035.1,027.9,4.3,0000.0,0001.56,0005.54,0001.33
2023-11-14 10:23:00,SystemResetWarning,0830.3,5.00,000.00,026.6,025.4,000.0,035.0,027.9,4.4,0000.0,0001.54,0005.76,0001.33
2023-11-14 10:24:00,SystemResetWarning,0830.3,5.00,000.00,026.6,025.3,000.0,035.0,027.9,4.4,0000.0,0001.56,0005.86,0001.33
2023-11-14 10:25:00,SystemResetWarning,0830.3,5.00,000.00,026.6,025.3,000.0,035.0,027.8,4.4,0000.0,0001.56,0005.85,0001.32
2023-11-14 10:26:00,SystemResetWarning,0830.3,5.00,000.00,026.5,025.3,000.0,035.0,027.8,4.4,0000.0,0001.58,0005.90,0001.32
2023-11-14 10:27:00,SystemResetWarning,0830.4,5.00,000.00,026.5,025.2,000.0,035.0,027.8,4.3,0000.0,0001.57,0006.67,0001.30
2023-11-14 10:28:00,SystemResetWarning,0830.5,4.99,000.00,026.5,025.2,000.0,035.0,027.8,4.5,0000.0,0001.56,0006.64,0001.29
2023-11-14 10:29:00,SystemResetWarning,0830.4,5.00,000.00,026.5,025.2,000.0,035.0,027.8,4.4,0000.0,0001.55,0006.13,0001.28
2023-11-14 10:30:00,SystemResetWarning,0830.4,5.00,000.00,026.5,025.2,000.0,035.0,027.8,4.2,0000.0,0001.56,0004.28,0001.28
2023-11-14 10:31:00,SystemResetWarning,0830.8,5.00,000.00,026.5,025.2,000.0,035.0,027.8,4.3,0000.0,0001.59,0004.39,0001.28
2023-11-14 10:32:00,SystemResetWarning,0830.5,5.00,000.00,026.5,025.2,000.0,034.9,027.8,5.2,0000.0,0001.59,0004.36,0001.26
2023-11-14 10:33:00,SystemResetWarning,0830.4,5.00,000.00,026.5,025.3,000.0,034.9,027.9,5.4,0000.0,0001.57,0004.26,0001.26
2023-11-14 10:34:00,SystemResetWarning,0830.5,5.00,000.00,026.5,025.3,000.0,034.9,027.9,5.5,0000.0,0001.56,0003.22,0001.26
2023-11-14 10:35:00,SystemResetWarning,0830.7,5.00,000.00,026.5,025.4,000.0,034.9,027.9,5.3,0000.0,0001.52,0002.88,0001.25
2023-11-14 10:36:00,SystemResetWarning,0830.5,5.00,000.00,026.5,025.4,000.0,034.9,027.9,4.6,0000.0,0001.50,0002.94,0001.24
2023-11-14 10:37:00,SystemResetWarning,0830.3,5.00,000.00,026.5,025.4,000.0,034.9,027.8,4.0,0000.0,0001.49,0002.94,0001.24
2023-11-14 10:38:00,SystemResetWarning,0830.4,5.00,000.00,026.5,025.3,000.0,034.9,027.7,3.8,0000.0,0001.61,0002.39,0001.35
2023-11-14 10:39:00,SystemResetWarning,0830.6,5.00,000.00,026.5,025.3,000.0,034.9,027.7,3.9,0000.0,0001.78,0002.86,0001.49
2023-11-14 10:40:00,SystemResetWarning,0830.6,5.00,000.00,026.5,025.3,000.0,034.9,027.8,3.9,0000.0,0001.96,0004.04,0001.61
2023-11-14 10:41:00,SystemResetWarning,0830.4,5.00,000.00,026.5,025.3,000.0,034.9,027.8,3.6,0000.0,0002.11,0006.10,0001.72
2023-11-14 10:42:00,SystemResetWarning,0830.3,5.00,000.00,026.5,025.3,000.0,034.9,027.8,3.7,0000.0,0002.14,0006.70,0001.75
2023-11-14 10:43:00,SystemResetWarning,0830.3,5.00,000.00,026.5,025.3,000.0,034.9,027.9,5.4,0000.0,0002.07,0006.67,0001.71
2023-11-14 10:44:00,SystemResetWarning,0830.4,4.99,000.00,026.5,025.4,000.0,034.9,027.9,6.2,0000.0,0002.02,0007.21,0001.67
2023-11-14 10:45:00,SystemResetWarning,0830.6,5.00,000.00,026.5,025.4,000.0,034.9,027.9,6.0,0000.0,0001.97,0007.46,0001.64
2023-11-14 10:46:00,SystemResetWarning,0830.6,5.00,000.00,026.5,025.4,000.0,034.9,027.9,6.3,0000.0,0001.94,0007.44,0001.62
2023-11-14 10:47:00,SystemResetWarning,0830.7,5.00,000.00,026.5,025.4,000.0,034.9,027.9,6.6,0000.0,0001.89,0007.36,0001.58
2023-11-14 10:48:00,SystemResetWarning,0830.7,5.00,000.00,026.5,025.4,000.0,034.9,027.9,6.4,0000.0,0001.87,0007.33,0001.57
2023-11-14 10:49:00,SystemResetWarning,0830.6,5.00,000.00,026.5,025.5,000.0,034.9,027.9,6.9,0000.0,0002.05,0007.53,0001.65
2023-11-14 10:50:00,SystemResetWarning,0830.7,5.00,000.00,026.5,025.5,000.0,034.9,028.0,7.7,0000.0,0002.27,0007.79,0001.82
2023-11-14 10:51:00,SystemResetWarning,0830.7,5.00,000.00,026.5,025.5,000.0,034.9,028.0,7.9,0000.0,0002.51,0008.20,0001.98
2023-11-14 10:52:00,SystemResetWarning,0830.7,5.00,000.00,026.5,025.5,000.0,034.9,028.0,7.3,0000.0,0002.76,0008.26,0002.11
2023-11-14 10:53:00,SystemResetWarning,0830.6,5.00,000.00,026.5,025.5,000.0,034.9,028.0,7.0,0000.0,0003.06,0007.84,0002.36
2023-11-14 10:54:00,SystemResetWarning,0830.7,4.99,000.00,026.5,025.5,000.0,034.9,028.0,6.5,0000.0,0003.32,0008.42,0002.70
2023-11-14 10:55:00,SystemResetWarning,0830.7,5.00,000.00,026.5,025.5,000.0,034.9,028.0,6.3,0000.0,0003.66,0009.34,0003.12
2023-11-14 10:56:00,SystemResetWarning,0830.6,5.00,000.00,026.5,025.5,000.0,034.9,027.9,6.0,0000.0,0004.14,0011.22,0003.46
2023-11-14 10:57:00,SystemResetWarning,0830.6,5.00,000.00,026.5,025.5,000.0,034.9,027.9,5.9,0000.0,0004.57,0012.53,0003.76
2023-11-14 10:58:00,SystemResetWarning,0830.7,5.01,000.00,026.5,025.5,000.0,034.9,028.0,6.0,0000.0,0005.04,0014.40,0004.08
2023-11-14 10:59:00,SystemResetWarning,0830.7,5.01,000.00,026.5,025.5,000.0,034.9,028.0,5.8,0000.0,0005.43,0016.15,0004.35
